Location: Little Maitland River
(43.8022°N, 81.1549°W)
Time: 07:00:33
(UTC+00:00)

USA 238 DEB - Pass Details

Date: 09 December 2025
Orbit: 883 x 1328 km, 63.4° (Epoch: 10 January)

Event Time Altitude Azimuth Distance (km) Brightness Sun altitude
Rises 00:15:58 0° 215° (SW) 3,504 7.0 -26.0°
Reaches altitude 10° 00:18:23 10° 216° (SW) 2,595 6.2 -26.4°
Maximum altitude 00:24:25 88° 307° (NW) 972 3.4 -27.5°
Enters shadow 00:25:28 65° 31° (NNE) 1,070 3.4 -27.7°
